Starlink 3572

operational
NORAD ID: 51879 Int'l Des: 2022-022 Owner: SPXS Country: US Constellation: starlink
LEOCIRCULAR

Starlink 3572について

説明を読み込み中...

リアルタイム位置

3D地球を読み込み中...

次回通過

高度履歴

Altitude vs Time

uPlot chart will show altitude changes over time

軌道要素

1 51879U 22022AD 25260.69561872 -.00000421 00000-0 -83362-5 0 9993
2 51879 53.2183 55.7208 0001271 86.7084 273.4053 15.08843003197132
Epoch: Sep 17, 2025 • Age: 25 hours

現在のステータス

高度 541.6 km
速度 7.59 km/s
衛星直下点 -5.37°S, 137.53°E
打ち上げ日 Mar 3, 2022
運用期間 3.5 years
タイプ internet

技術仕様

分類 Payload
質量 297.00 kg
乾燥質量 275.00 kg
総質量 297.00 kg
長さ 0.20 m
直径 2.80 m
スパン 9.00 m
形状 Box + pan
製造者 SPXS
バスタイプ Starlink
フェーズステータス In Orbit
所有者/国 SPXS/US

大規模コンステレーション

Loading constellations...